Regional Weather Roundup
Issued by NWS

Home | Current Version | Previous Version | Graphics & Text | Print | Product List | Glossary On
Versions: 1 2 3 4 5 6 7 8 9 10 11 12 13 14 15 16 17 18 19 20 21 22 23 24 25 26 27
000
ASUS45 KBOU 240107
RWRCO

WEATHER ROUNDUP FOR COLORADO
NATIONAL WEATHER SERVICE DENVER/BOULDER CO
600 PM MST MON JAN 23 2017

NOTE: "FAIR" INDICATES FEW OR NO CLOUDS BELOW 12000 FEET WITH NO
SIGNIFICANT WEATHER AND/OR OBSTRUCTIONS TO VISIBILITY.

COZ001>005-013-030-031-240200-
...NORTHWEST COLORADO...

CITY           SKY/WX    TMP DP  RH WIND       PRES   REMARKS
CRAIG          CLOUDY    30  24  78 W9        29.54S WCI  22
HAYDEN         MOCLDY    27  23  86 W6        29.55R WCI  20
MEEKER         CLOUDY    29  26  89 VRB6      29.54S WCI  23
MOUNT WERNER   NOT AVBL
STEAMBOAT SPGS CLOUDY    27  26  94 W10G17    29.56R WCI  17
WALDEN           N/A     28  21  74 S7        29.50F WCI  21
$$

COZ006>008-011-240200-
...WEST CENTRAL VALLEYS...

CITY           SKY/WX    TMP DP  RH WIND       PRES   REMARKS
GRAND JUNCTION MOCLDY    36  32  85 E3        29.56F
MONTROSE       MOCLDY    36  21  54 SW16G25   29.63S
EAGLE          LGT SNOW  28  27  93 SW14G26   29.62R FOG     WCI  17
RIFLE          LGT SNOW  32  30  92 E7        29.60R FOG     WCI  26
DELTA          CLOUDY    38  32  77 S3        29.61S
NUCLA          CLOUDY    34  23  64 SW5       29.67S WCI  30
$$

COZ017>023-064>068-240200-
...SOUTHWEST COLORADO...

CITY           SKY/WX    TMP DP  RH WIND       PRES   REMARKS
DURANGO        SNOW      32  30  92 CALM      29.66S VSB 1/2
CORTEZ         LGT SNOW  30  29  96 NW12      29.70R FOG     WCI  20
PAGOSA SPRINGS CLOUDY    32  32  99 SW12G17   29.66S WCI  23
TELLURIDE      NOT AVBL
WOLF CREEK PAS CLOUDY    18  18 100 SW39G61   29.58F WCI  -4
$$

COZ009-010-012-014-032>034-037-058>063-240200-
...CENTRAL COLORADO...

CITY           SKY/WX    TMP DP  RH WIND       PRES   REMARKS
ASPEN          LGT SNOW  29  28  96 CALM      29.55R FOG
BUENA VISTA    FLURRIES  26  25  94 CALM      29.56S
COPPER MTN     CLOUDY    21  12  68 MISG      29.55F HAZE
BERTHOUD PASS  CLOUDY    12   3  67 MISG      29.56F
COTTONWOOD PAS SNOW      28  27  93 E5        29.56F VSB<1/4 WCI  23
GUNNISON       LGT SNOW  30  26  85 SW15G24   29.58R FOG     WCI  19
KREMMLING      CLOUDY    36  28  75 SW14      29.53S
LEADVILLE      CLOUDY    21  14  74 S12       29.52F WCI   9
MONARCH PASS   CLOUDY    18  14  86 W7G18     29.66S WCI   8
SALIDA         MOCLDY    33  27  77 CALM      29.63R
SUNLIGHT       CLOUDY    16  14  93 SW16G28   29.57F WCI   0
WILKERSON PASS SNOW     N/A N/A N/A SW7       29.60F VSB 1/2
$$

COZ069>075-240200-
...SAN LUIS VALLEY/SANGRE DE CRISTO MOUNTAINS...

CITY           SKY/WX    TMP DP  RH WIND       PRES   REMARKS
ALAMOSA        CLOUDY    35  27  72 SW21G29   29.61F WCI  24
LA VETA PASS   NOT AVBL
SAGUACHE       MOCLDY    30  23  74 N5        29.58F WCI  25
$$

COZ035-036-038>040-240200-
...NORTHERN COLORADO FRONT RANGE...

CITY           SKY/WX    TMP DP  RH WIND       PRES   REMARKS
DENVER INTL AP MOCLDY    36  29  75 E7        29.50S
DMNS CITY PARK   N/A     40  28  63 E6        29.51S
AURORA         MOCLDY    42  23  47 W8        29.51S
FRONT RANGE AP MOCLDY    37  28  70 E6        29.52R
ERIE MUNI ARPT CLOUDY    42  28  58 SE3       29.51F
BOULDER MUN AP CLOUDY    43  28  56 CALM      29.50F
CENTENNIAL     MOCLDY    39  22  50 SW6       29.51S
BROOMFIELD     LGT RAIN  43  28  56 NE8       29.52R
FORT COLLINS   MOCLDY    39  27  62 SE12      29.51F
LONGMONT       FAIR      44  29  55 SE8       29.53S
$$

COZ041-046-047-076>085-087-088-240200-
...PIKES PEAK/PALMER DIVIDE AND SOUTHERN FOOTHILLS...

CITY           SKY/WX    TMP DP  RH WIND       PRES   REMARKS
COLO. SPRINGS  FAIR      41  20  43 SW6       29.55S
A. F. ACADEMY  FAIR      36  21  53 NE3       29.54S
SCHRIEVER AFB  FAIR      37  22  54 SW8       29.55S
ELLICOTT       FAIR     N/A N/A N/A S12       29.54S
FALCON         FAIR      34  17  49 SW7       29.56S WCI  28
FORT CARSON    MOCLDY    41  20  43 S9        29.53R
LIMON          FAIR      42  24  49 SW9       29.52S
MONUMENT HILL  FAIR      34  21  60 SW8       29.54F WCI  27
TRINIDAD       FAIR      41  30  65 SW18      29.60F
$$

COZ042>045-048>051-090-091-240200-
...NORTHEAST COLORADO...

CITY           SKY/WX    TMP DP  RH WIND       PRES   REMARKS
GREELEY ARPT   MOCLDY    38  27  64 E3        29.53S
AKRON          MOCLDY    36  25  64 E9        29.53F
BURLINGTON     FAIR      40  29  64 NE9       29.53S
WRAY           NOT AVBL
STERLING       CLOUDY    41  28  60 CALM      29.55R
HOLYOKE        FAIR      36  30  80 E5        29.58R
FORT MORGAN    CLOUDY    38  26  60 E8        29.54S
$$

COZ086-089-092>099-240200-
...SOUTHEAST COLORADO...

CITY           SKY/WX    TMP DP  RH WIND       PRES   REMARKS
PUEBLO         FAIR      46  26  45 SW9       29.53F
LA JUNTA       FAIR      45  29  53 SW15      29.55F
LAMAR          FAIR      41  28  60 SW10      29.53F
SPRINGFIELD      N/A     40  23  50 SW9       29.60R
$$




USA.gov is the U.S. government's official web portal to all federal, state and local government web resources and services.